FW7124 Weather Reports


time (UTC)temp
C
wind
direction
speed
KPH
gust
KPH
rain 1hr
cm
rain 24hr
cm
rain mn
cm
humidity
%
barometer
mb
20260505140639 14 82 0.0 1.6 0.00 0.00 0.00 70 1013.3
20260505130203 13 321 0.0 1.6 0.00 0.00 0.00 72 1013.6
20260505124202 13 63 0.0 3.2 0.00 0.00 0.00 74 1013.6
20260505123202 13 0 0.0 0.0 0.00 0.00 0.00 71 1013.5
20260505122652 13 17 0.0 4.8 0.00 0.00 0.00 72 1013.5
20260505121202 13 5 1.6 4.8 0.00 0.00 0.00 71 1013.5
20260505120202 13 342 0.0 4.8 0.00 0.00 0.00 73 1013.6
20260505115202 13 18 1.6 4.8 0.00 0.00 0.00 72 1013.4
20260505114202 14 298 0.0 3.2 0.00 0.00 0.00 74 1013.6
20260505113202 13 329 0.0 1.6 0.00 0.00 0.00 77 1013.5
20260505112202 13 338 0.0 3.2 0.00 0.00 0.00 77 1013.7
20260505111202 13 346 0.0 3.2 0.00 0.00 0.00 77 1013.8
20260505110203 13 92 0.0 3.2 0.00 0.00 0.00 77 1013.8
20260505101636 13 20 0.0 3.2 0.00 0.00 0.00 79 1014.1
20260505100153 12 53 0.0 4.8 0.00 0.00 0.00 78 1014.1
20260505095152 12 0 0.0 3.2 0.00 0.00 0.00 77 1014.1
20260505094152 12 5 0.0 3.2 0.00 0.00 0.00 80 1014.2
20260505093151 12 344 0.0 3.2 0.00 0.00 0.00 80 1014.4
20260505092151 12 9 0.0 3.2 0.00 0.00 0.00 80 1014.4
20260505091635 12 348 0.0 4.8 0.00 0.00 0.00 81 1014.4
20260505090639 12 341 0.0 4.8 0.00 0.00 0.00 80 1014.3
20260505085152 12 105 0.0 0.0 0.00 0.00 0.00 82 1014.3
20260505084149 11 14 0.0 0.0 0.00 0.00 0.00 85 1014.5
20260505083149 11 30 0.0 0.0 0.00 0.00 0.00 85 1014.5
20260505082150 11 30 0.0 0.0 0.00 0.00 0.00 85 1014.6
20260505081146 11 30 0.0 0.0 0.00 0.00 0.00 84 1014.6
20260505080142 11 34 0.0 0.0 0.00 0.00 0.00 83 1014.6
20260505075638 11 21 0.0 0.0 0.00 0.00 0.00 84 1014.4
20260505074145 11 349 0.0 0.0 0.00 0.00 0.00 86 1014.3
20260505073139 11 19 0.0 0.0 0.00 0.00 0.00 86 1014.3
20260505072139 11 71 0.0 0.0 0.00 0.00 0.00 87 1014.5
20260505071139 11 0 0.0 0.0 0.00 0.00 0.00 88 1014.6
20260505070141 10 13 0.0 0.0 0.00 0.00 0.00 88 1014.6
20260505065138 10 5 0.0 0.0 0.00 0.00 0.00 89 1014.7
20260505064136 10 5 0.0 0.0 0.00 0.00 0.00 91 1014.6
20260505063135 10 23 0.0 0.0 0.00 0.00 0.00 92 1014.6
20260505062136 9 42 0.0 0.0 0.00 0.00 0.00 92 1014.5
20260505061619 9 42 0.0 0.0 0.00 0.00 0.00 92 1014.5
20260505060137 9 42 0.0 0.0 0.00 0.00 0.00 92 1014.5
20260505055135 9 42 0.0 0.0 0.00 0.00 0.00 92 1014.7
20260505054141 8 42 0.0 0.0 0.00 0.00 0.00 92 1014.5
20260505053135 8 42 0.0 0.0 0.00 0.00 0.00 91 1014.7
20260505052133 9 42 0.0 0.0 0.00 0.00 0.00 91 1014.7
20260505051134 9 316 0.0 0.0 0.00 0.00 0.00 91 1014.7
20260505050134 9 316 0.0 0.0 0.00 0.00 0.00 91 1014.5
20260505041140 10 315 0.0 0.0 0.00 0.00 0.00 91 1014.9
20260505040131 10 345 0.0 0.0 0.00 0.00 0.00 91 1014.9
20260505035131 10 345 0.0 0.0 0.00 0.00 0.00 91 1014.8
20260505034131 10 345 0.0 0.0 0.00 0.00 0.00 91 1014.8
20260505032129 10 345 0.0 0.0 0.00 0.00 0.00 91 1015.0
20260505031129 10 345 0.0 0.0 0.00 0.00 0.00 90 1014.9
20260505030129 10 345 0.0 0.0 0.00 0.00 0.00 90 1014.9
20260505025604 10 345 0.0 0.0 0.00 0.00 0.00 91 1014.9
20260505024130 10 345 0.0 0.0 0.00 0.00 0.00 91 1015.0
20260505023129 10 345 0.0 0.0 0.00 0.00 0.00 90 1015.0
20260505022129 10 345 0.0 0.0 0.00 0.00 0.00 90 1014.9
20260505021130 10 345 0.0 0.0 0.00 0.00 0.00 89 1014.9
20260505020129 10 345 0.0 0.0 0.00 0.00 0.00 89 1015.0
20260505015127 11 345 0.0 0.0 0.00 0.00 0.00 89 1015.0
20260505014128 11 345 0.0 0.0 0.00 0.00 0.00 88 1015.1
20260505013127 11 345 0.0 0.0 0.00 0.00 0.00 88 1015.3
20260505012128 11 345 0.0 0.0 0.00 0.00 0.00 87 1015.3
20260505011127 11 345 0.0 0.0 0.00 0.00 0.00 87 1015.3
20260505010127 11 345 0.0 0.0 0.00 0.00 0.00 87 1015.4
20260505005126 11 345 0.0 0.0 0.00 0.00 0.00 86 1015.5
20260505004127 11 345 0.0 0.0 0.00 0.00 0.00 87 1015.6
20260505003127 11 345 0.0 0.0 0.00 0.00 0.00 86 1015.6
20260505002126 12 345 0.0 0.0 0.00 0.00 0.00 86 1015.7
20260505001125 12 345 0.0 0.0 0.00 0.00 0.00 86 1015.8
20260505000125 12 345 0.0 0.0 0.00 0.00 0.00 86 1015.7
20260504234125 12 345 0.0 0.0 0.00 0.00 0.00 86 1015.8
20260504233124 12 345 0.0 0.0 0.00 0.00 0.00 85 1015.8
20260504232121 12 345 0.0 0.0 0.00 0.00 0.00 86 1015.9
20260504231601 12 345 0.0 0.0 0.00 0.00 0.00 85 1015.9
20260504230600 12 345 0.0 0.0 0.00 0.00 0.00 84 1015.9
20260504225552 12 345 0.0 0.0 0.00 0.00 0.00 85 1015.8
20260504224114 12 345 0.0 0.0 0.00 0.00 0.00 85 1015.9
20260504223114 12 346 0.0 0.0 0.00 0.00 0.00 84 1015.9
20260504222113 12 346 0.0 0.0 0.00 0.00 0.00 84 1015.9
20260504221121 12 346 0.0 0.0 0.00 0.00 0.00 85 1015.9
20260504220113 12 346 0.0 0.0 0.00 0.00 0.00 84 1016.0
20260504215113 12 346 0.0 1.6 0.00 0.00 0.00 84 1016.1
20260504214114 12 346 0.0 1.6 0.00 0.00 0.00 84 1016.0
20260504213113 12 331 0.0 1.6 0.00 0.00 0.00 84 1016.1
20260504212115 12 324 0.0 1.6 0.00 0.00 0.00 84 1016.2
20260504211113 13 324 0.0 1.6 0.00 0.00 0.00 85 1016.2
20260504210114 13 338 0.0 1.6 0.00 0.00 0.00 84 1016.1
20260504205107 13 349 0.0 1.6 0.00 0.00 0.00 84 1016.1
20260504204109 13 349 0.0 1.6 0.00 0.00 0.00 84 1016.1
20260504203551 13 349 0.0 1.6 0.00 0.00 0.00 84 1016.1
20260504202104 13 349 0.0 1.6 0.00 0.00 0.00 84 1016.0
20260504201103 13 349 0.0 1.6 0.00 0.00 0.00 84 1015.9
20260504200105 13 349 0.0 1.6 0.00 0.00 0.00 84 1015.8
20260504195543 13 349 0.0 1.6 0.00 0.00 0.00 83 1015.7
20260504194102 13 349 0.0 1.6 0.00 0.00 0.00 83 1015.7
20260504193102 13 349 0.0 1.6 0.00 0.00 0.00 83 1015.6
20260504192546 13 349 0.0 1.6 0.00 0.00 0.00 83 1015.6
20260504191541 13 349 0.0 1.6 0.00 0.00 0.00 83 1015.6
20260504184103 13 347 0.0 1.6 0.00 0.00 0.00 82 1015.3
20260504183056 13 347 0.0 1.6 0.00 0.00 0.00 81 1015.3
20260504182107 13 347 0.0 1.6 0.00 0.00 0.00 81 1015.2
20260504181055 13 351 0.0 1.6 0.00 0.00 0.00 81 1015.1
20260504175054 14 349 0.0 3.2 0.00 0.00 0.00 80 1015.2
20260504174055 14 349 1.6 3.2 0.00 0.00 0.00 80 1015.2
20260504173059 14 0 0.0 3.2 0.00 0.00 0.00 79 1015.0
20260504172053 15 337 0.0 3.2 0.00 0.00 0.00 80 1015.0
20260504171541 15 0 0.0 3.2 0.00 0.00 0.00 80 1015.0
20260504151048 16 34 0.0 1.6 0.00 0.00 0.00 74 1014.8